THAICOM 8

Last updated on Nov. 15, 2019, 4:20 a.m. UTC

1 41552U 16031A   19318.06883910 -.00000107  00000-0  00000+0 0  9993
2 41552   0.0638  46.4814 0000739 278.9574 190.7306  1.00269044 12649
UTC
Height (km)
Latitude
Longitude
Inclination
Orbital Period
UTC large
Height (km)
Speed (km/s)
/
Latitude / Longitude
Inclination (degrees)
Orbital Period (minutes)
Azimuth
Elevation
Range (km)
Doppler Factor
iOS Compass Heading
iOS Angle

Next 30 passes for location: Hong Kong

Rise time Rise Azimuth (degrees) Set time Set Azimuth (degrees) Duration Max altitude (degrees)

No matching passes for this satellites